Location: Pabrico
(37.5827°N, 122.0063°W)
Time: 09:35:21
(UTC+00:00)

Cosmos 1867 - Visible Passes

Search period start: 12 July 2025 00:00
Search period end: 22 July 2025 00:00
Orbit: 776 x 798 km, 65.0° (Epoch: 11 July)

Date Brightness Start Highest point End Pass type
(mag) Time Alt. Az. Time Alt. Az. Time Alt. Az.
12 Jul 5.6 06:17:07 14° ENE 06:17:07 14° ENE 06:18:17 10° ENE visible
12 Jul 4.1 07:57:42 53° NW 07:57:42 53° NW 08:02:54 10° NNE visible
13 Jul 3.8 07:25:59 68° NNW 07:25:59 68° NNW 07:30:58 10° NNE visible
13 Jul 6.1 09:07:36 10° WNW 09:10:00 13° NW 09:12:26 10° NNW visible
14 Jul 3.7 06:54:11 67° NE 06:54:11 67° NE 06:58:57 10° NNE visible
14 Jul 6.0 08:34:45 12° WNW 08:37:41 17° NW 08:41:09 10° N visible
15 Jul 3.8 06:22:13 53° E 06:22:13 53° E 06:26:51 10° NE visible
15 Jul 5.7 08:02:47 16° W 08:05:26 22° NW 08:09:37 10° N visible
16 Jul 4.1 05:50:04 40° E 05:50:04 40° E 05:54:38 10° NE visible
16 Jul 5.3 07:30:37 20° W 07:33:13 28° NW 07:37:55 10° N visible
17 Jul 4.4 05:17:38 29° ESE 05:17:40 29° ESE 05:22:17 10° NE visible
17 Jul 4.8 06:58:09 22° WSW 07:01:03 38° NW 07:06:08 10° NNE visible
18 Jul 4.8 04:44:43 19° SE 04:45:48 20° ESE 04:49:44 10° ENE visible
18 Jul 4.3 06:25:12 19° SW 06:28:56 52° NW 06:34:16 10° NNE visible
19 Jul 5.2 04:11:13 10° SE 04:13:58 14° ESE 04:16:45 10° ENE visible
19 Jul 3.7 05:51:27 10° SW 05:56:52 72° WNW 06:02:20 10° NNE visible
19 Jul 6.4 07:39:06 10° WNW 07:41:24 13° NW 07:43:44 10° NNW visible
20 Jul 3.5 05:19:25 10° SSW 05:24:51 83° ESE 05:30:20 10° NNE visible
20 Jul 6.3 07:05:42 10° W 07:09:05 16° NW 07:12:30 10° N visible
20 Jul 7.0 12:28:11 10° NNE 12:29:25 11° NE 12:30:40 10° NE visible
21 Jul 3.6 04:47:33 10° SSW 04:52:52 59° ESE 04:58:14 10° NE visible
21 Jul 5.9 06:32:43 10° W 06:36:50 21° NW 06:40:57 10° N visible
